Showing default

SAUDIGEOSAT1/HELLASSAT4, 44034

Orbit data source: Space-Track

SAUDIGEOSAT1/HELLASSAT4, 44034 is a Greek payload satellite in GEO that was launched on Tue, 05 Feb 2019 UTC via an ARIANE 5ECA launch vehicle from the French Guiana (FRGUI). Payload-class satellites include a variety of spacecraft equipped with specific instruments for various scientific and technological missions. These include communications satellites like Starlink; space stations such as the ISS; scientific satellites like the Hubble; Earth observation satellites from companies like Planet Labs, Umbra, and HawkEye 360; GPS; miniature CubeSats for education and research; and military/defense satellites.

Not visible in the next 10 days
Identifier
44034, 2019-007A
Orbit
GEO
Country
Flag of UnknownUnknown / GREC
Related business
Manufacturer
LMSS
Mission
Operational Civil Communications
Bus & Motor
A2100TR, BT-4?
Mass
6,495 kg wet, ~3,000 kg dry
Launch date (UTC)
2019-02-05 (7 years ago)
Launch vehicle
ARIANE 5ECA
Launch site
French Guiana (FRGUI)
Object type
Payload
Rocket body
Debris
Shape & HBR
Box + 2 Pan, 15.0 m
Radar Cross Section
73.223 m², Large (>1 m²)

Expand to show TLE details & history
Last TLE update: 17 hours ago

TLE from 17 hours ago
0 SAUDIGEOSAT1/HELLASSAT4
1 44034U 19007A   25348.92347741  .00000172  00000-0  00000-0 0  9991
2 44034   0.0687 127.6219 0004624  46.8183 280.8660  1.00270979 25510
Epoch: 2025-12-14T22:09Z
TLE epoch observation values (Epoch: 2025-12-14T22:09:48.448Z)
Latitude
-0.01176°
Longitude
38.96282°
Altitude
35,782.691 km
Speed
3.075 km/s
True Right ascension
06h 20m 58s
True Declination
0° 00' 42"
Sunlit
Object was in daylight at epoch
Visualization orbit readout
Latitude
Unknown
Longitude
Unknown
Altitude
Unknown
Speed
Unknown
Apparent Right ascension
Unknown
Apparent Declination
Unknown
Sunlit
N/A
Visualization observer readout
Local Sidereal Time
13:21:48
Azimuth
Unknown
Elevation
Unknown
Doppler factor
Unknown
Orbital elements
Apogee altitude
35,807.389 km
Perigee altitude
35,768.394 km
Semi-major axis
42,166.028 km
Eccentricity
0.00046
Inclination
0.0687°
RAAN
127.6219°
Arg. of periapsis
46.8183°
True anomaly
280.81396°
Mean anomaly
280.866°
Eccentric anomaly
280.83998°
Mean motion
0.25067 °/min
Orbital period
1,436.16 mins
BSTAR
0
Loading maneuver chart data...
Computing Atmospheric mass density...
Loading historical data...
Loading historical data...
Loading historical data...
Loading historical data...
Loading historical data...
Loading historical data...
Loading historical data...
Other satellites on launch #7 in the year 2019 (2019-02-05 UTC)

Documentation

Showing up to 5 results
|